Volver al catálogo

FENGYUN 1C DEB

ActivoLEO
NORAD 38172·DEBRIS·🇨🇳 China

Lanzado May 10, 1999 desde Taiyuan Satellite Launch Center

Loading…

Próximos Pases (próximas 24 horas)

TLE

ObsoletoSource: Space-Track

Época: Sep 3, 2026, 02:27 UTC

1 38172U 99025ERV 26246.10225796  .00000222  00000-0  30601-3 0  9997
2 38172 100.4266 357.1165 0280296  42.0100 320.2166 13.54990438652520

Sigue FENGYUN 1C DEB en tiempo real con AllMySat

Download on the App Store